EN

Hourly Weather Barnab

Today, 29 July, Thursday

Time Temperature Precipitation Wind Pressure Humidity
00:00 +13°C° 0.1 mm 2 mps 615 mmHg 96%
01:00 +13°C° 0.1 mm 2 mps 614 mmHg 95%
02:00 +12°C° 0.1 mm 1 mps 614 mmHg 94%
03:00 +12°C° 0 mm 1 mps 614 mmHg 94%
04:00 +13°C° 0.2 mm 1 mps 614 mmHg 93%
05:00 +13°C° 0.2 mm 1 mps 614 mmHg 92%
06:00 +13°C° 0.2 mm 1 mps 614 mmHg 91%
07:00 +13°C° 0.8 mm 1 mps 614 mmHg 90%
08:00 +14°C° 0.8 mm 1 mps 615 mmHg 89%
09:00 +15°C° 0.8 mm 1 mps 615 mmHg 88%
10:00 +15°C° 2 mm 1 mps 615 mmHg 88%
11:00 +15°C° 2 mm 1 mps 615 mmHg 88%
12:00 +15°C° 2 mm 1 mps 615 mmHg 88%
13:00 +15°C° 1 mm 1 mps 615 mmHg 87%
14:00 +16°C° 1 mm 1 mps 615 mmHg 86%
15:00 +16°C° 1 mm 1 mps 615 mmHg 84%
16:00 +16°C° 0.2 mm 1 mps 615 mmHg 85%
17:00 +15°C° 0.2 mm 1 mps 615 mmHg 86%
18:00 +15°C° 0.2 mm 1 mps 615 mmHg 86%
19:00 +14°C° 0 mm 1 mps 614 mmHg 88%
20:00 +12°C° 0 mm 0 mps 614 mmHg 90%
21:00 +11°C° 0 mm 0 mps 614 mmHg 92%
22:00 +11°C° 0 mm 0 mps 614 mmHg 91%
23:00 +11°C° 0 mm 0 mps 614 mmHg 89%

Tomorrow, 30 July, Friday

Time Temperature Precipitation Wind Pressure Humidity
00:00 +11°C° 0 mm 0 mps 614 mmHg 88%
01:00 +12°C° 0 mm 1 mps 613 mmHg 88%
02:00 +12°C° 0 mm 1 mps 613 mmHg 87%
03:00 +11°C° 0 mm 1 mps 613 mmHg 87%
04:00 +11°C° 0 mm 0 mps 613 mmHg 85%
05:00 +12°C° 0 mm 0 mps 613 mmHg 83%
06:00 +13°C° 0 mm 0 mps 614 mmHg 81%
07:00 +15°C° 0 mm 1 mps 614 mmHg 77%
08:00 +18°C° 0 mm 1 mps 615 mmHg 73%
09:00 +18°C° 0 mm 2 mps 615 mmHg 69%
10:00 +18°C° 0.1 mm 2 mps 615 mmHg 70%
11:00 +18°C° 0.1 mm 2 mps 615 mmHg 70%
12:00 +19°C° 0.1 mm 2 mps 615 mmHg 71%
13:00 +19°C° 0.4 mm 2 mps 615 mmHg 72%
14:00 +19°C° 0.4 mm 2 mps 615 mmHg 74%
15:00 +19°C° 0.4 mm 2 mps 614 mmHg 75%
16:00 +19°C° 0.8 mm 1 mps 614 mmHg 77%
17:00 +19°C° 0.8 mm 1 mps 614 mmHg 79%
18:00 +19°C° 0.8 mm 1 mps 614 mmHg 81%
19:00 +18°C° 0.3 mm 1 mps 614 mmHg 83%
20:00 +16°C° 0.3 mm 1 mps 614 mmHg 84%
21:00 +15°C° 0.3 mm 1 mps 614 mmHg 86%
22:00 +15°C° 0 mm 1 mps 614 mmHg 87%
23:00 +14°C° 0 mm 1 mps 614 mmHg 88%

Day after tomorrow, 31 July, Saturday

Time Temperature Precipitation Wind Pressure Humidity
00:00 +14°C° 0 mm 1 mps 614 mmHg 89%
01:00 +14°C° 0 mm 1 mps 613 mmHg 89%
02:00 +13°C° 0 mm 1 mps 613 mmHg 90%
03:00 +13°C° 0 mm 1 mps 613 mmHg 90%
04:00 +13°C° 0 mm 1 mps 613 mmHg 88%
05:00 +14°C° 0 mm 1 mps 613 mmHg 86%
06:00 +14°C° 0 mm 1 mps 613 mmHg 84%
07:00 +16°C° 0.1 mm 1 mps 614 mmHg 78%
08:00 +19°C° 0.1 mm 1 mps 614 mmHg 72%
09:00 +20°C° 0.1 mm 1 mps 614 mmHg 67%
10:00 +20°C° 0.9 mm 2 mps 614 mmHg 68%
11:00 +20°C° 0.9 mm 2 mps 615 mmHg 68%
12:00 +20°C° 0.9 mm 2 mps 615 mmHg 69%
13:00 +20°C° 1.5 mm 2 mps 615 mmHg 69%
14:00 +20°C° 1.5 mm 2 mps 615 mmHg 69%
15:00 +21°C° 1.5 mm 1 mps 614 mmHg 68%
16:00 +21°C° 1 mm 1 mps 614 mmHg 71%
17:00 +20°C° 1 mm 1 mps 615 mmHg 73%
18:00 +18°C° 1 mm 0 mps 615 mmHg 75%
19:00 +19°C° 0.5 mm 1 mps 615 mmHg 78%
20:00 +18°C° 0.5 mm 1 mps 614 mmHg 81%
21:00 +15°C° 0.5 mm 1 mps 614 mmHg 84%
22:00 +15°C° 0.2 mm 1 mps 614 mmHg 84%
23:00 +15°C° 0.2 mm 1 mps 614 mmHg 85%

1 August, Sunday

Time Temperature Precipitation Wind Pressure Humidity
00:00 +14°C° 0.2 mm 1 mps 614 mmHg 86%
01:00 +14°C° 0 mm 1 mps 614 mmHg 86%
02:00 +14°C° 0 mm 1 mps 614 mmHg 86%
03:00 +13°C° 0 mm 1 mps 613 mmHg 86%
04:00 +14°C° 0 mm 1 mps 614 mmHg 84%
05:00 +15°C° 0 mm 1 mps 614 mmHg 83%
06:00 +16°C° 0 mm 1 mps 615 mmHg 81%
07:00 +18°C° 0 mm 1 mps 615 mmHg 76%
08:00 +20°C° 0 mm 1 mps 615 mmHg 70%
09:00 +21°C° 0 mm 1 mps 616 mmHg 65%
10:00 +20°C° 0.8 mm 2 mps 616 mmHg 65%
11:00 +21°C° 0.8 mm 2 mps 616 mmHg 64%
12:00 +21°C° 0.8 mm 2 mps 616 mmHg 64%
13:00 +21°C° 1.6 mm 2 mps 616 mmHg 65%
14:00 +21°C° 1.6 mm 2 mps 616 mmHg 66%
15:00 +21°C° 1.6 mm 2 mps 616 mmHg 66%
16:00 +21°C° 1.4 mm 1 mps 616 mmHg 70%
17:00 +20°C° 1.4 mm 1 mps 616 mmHg 74%
18:00 +19°C° 1.4 mm 1 mps 616 mmHg 77%
19:00 +18°C° 0.4 mm 1 mps 615 mmHg 80%
20:00 +16°C° 0.4 mm 1 mps 615 mmHg 82%
21:00 +15°C° 0.4 mm 1 mps 615 mmHg 84%
22:00 +15°C° 0.3 mm 1 mps 615 mmHg 86%
23:00 +15°C° 0.3 mm 1 mps 615 mmHg 87%

2 August, Monday

Time Temperature Precipitation Wind Pressure Humidity
00:00 +14°C° 0.3 mm 1 mps 615 mmHg 89%
01:00 +14°C° 0.1 mm 1 mps 614 mmHg 88%
02:00 +14°C° 0.1 mm 1 mps 614 mmHg 87%
03:00 +14°C° 0.1 mm 1 mps 614 mmHg 86%
04:00 +14°C° 0.1 mm 1 mps 614 mmHg 85%
05:00 +15°C° 0.1 mm 1 mps 615 mmHg 85%
06:00 +16°C° 0.1 mm 1 mps 615 mmHg 85%
07:00 +18°C° 0.4 mm 1 mps 615 mmHg 81%
08:00 +19°C° 0.4 mm 1 mps 616 mmHg 77%
09:00 +19°C° 0.4 mm 2 mps 616 mmHg 73%
10:00 +19°C° 0.9 mm 2 mps 616 mmHg 73%
11:00 +19°C° 0.9 mm 2 mps 616 mmHg 72%
12:00 +19°C° 0.9 mm 2 mps 616 mmHg 71%
13:00 +20°C° 1.2 mm 1 mps 616 mmHg 71%
14:00 +20°C° 1.2 mm 1 mps 616 mmHg 71%
15:00 +20°C° 1.2 mm 1 mps 616 mmHg 72%
16:00 +19°C° 0.7 mm 1 mps 616 mmHg 74%
17:00 +19°C° 0.7 mm 1 mps 616 mmHg 76%
18:00 +19°C° 0.7 mm 1 mps 616 mmHg 78%
19:00 +17°C° 0 mm 2 mps 615 mmHg 78%
20:00 +16°C° 0 mm 2 mps 615 mmHg 78%
21:00 +15°C° 0 mm 2 mps 615 mmHg 78%
22:00 +15°C° 0 mm 2 mps 615 mmHg 77%
23:00 +15°C° 0 mm 2 mps 615 mmHg 76%

3 August, Tuesday

Time Temperature Precipitation Wind Pressure Humidity
00:00 +15°C° 0 mm 1 mps 615 mmHg 74%
01:00 +15°C° 0 mm 1 mps 615 mmHg 74%
02:00 +14°C° 0 mm 1 mps 614 mmHg 74%
03:00 +13°C° 0 mm 1 mps 614 mmHg 73%
04:00 +14°C° 0 mm 2 mps 614 mmHg 72%
05:00 +15°C° 0 mm 2 mps 615 mmHg 71%
06:00 +15°C° 0 mm 2 mps 615 mmHg 70%
07:00 +17°C° 0 mm 2 mps 616 mmHg 64%
08:00 +19°C° 0 mm 2 mps 616 mmHg 57%
09:00 +22°C° 0 mm 1 mps 617 mmHg 50%
10:00 +21°C° 0 mm 2 mps 617 mmHg 50%
11:00 +23°C° 0 mm 2 mps 617 mmHg 49%
12:00 +24°C° 0 mm 2 mps 617 mmHg 48%
13:00 +23°C° 0.4 mm 2 mps 617 mmHg 53%
14:00 +23°C° 0.4 mm 2 mps 617 mmHg 57%
15:00 +22°C° 0.4 mm 1 mps 617 mmHg 61%
16:00 +21°C° 0.4 mm 1 mps 617 mmHg 65%
17:00 +21°C° 0.4 mm 1 mps 617 mmHg 69%
18:00 +18°C° 0.4 mm 0 mps 617 mmHg 73%
19:00 +19°C° 0.1 mm 1 mps 617 mmHg 74%
20:00 +18°C° 0.1 mm 1 mps 617 mmHg 75%
21:00 +16°C° 0.1 mm 2 mps 617 mmHg 77%
22:00 +16°C° 0 mm 1 mps 617 mmHg 76%
23:00 +15°C° 0 mm 1 mps 617 mmHg 76%
Show more

We Need Your Consent

Meteoprog and our Service Providers may store and access personal data such as cookies, device identifiers or other similar technologies on your device and process such data to personalise content and ads, as well as provide social media features and to analyse the traffic.

  • Store and/or access information on your device

    Cookies, device identifiers or other information can be stored or accessed on your device for the purposes indicated above.

  • Personalised ads and content, ad and content measurement, audience insights, and products development

    Ads and content can be personalised based on a profile. More data can be added to better personalise ads and content. Ad and content performance can be measured. Insights about the audience who saw the ads and content can be derived. Such data can be used to develop or improve user’s experience, systems and software.

By clicking ‘I Agree’ you will allow the use of indicated cookies, device identifiers, web beacons or other similar technologies. Your settings can be changed in the browser on your device.

For certain purposes, legitimate interests may be relied on, rather than consent. You can read more about this in our Privacy and Cookie Policy.